GSAT0210 (GALILEO 13)

Last updated on Nov. 14, 2019, 4:21 a.m. UTC

1 41550U 16030B   19317.16100382 -.00000018  00000-0  00000+0 0  9996
2 41550  56.4689 287.9101 0004409 271.3803  88.5420  1.70474407 21592
UTC
Height (km)
Latitude
Longitude
Inclination
Orbital Period
UTC large
Height (km)
Speed (km/s)
/
Latitude / Longitude
Inclination (degrees)
Orbital Period (minutes)
Azimuth
Elevation
Range (km)
Doppler Factor
iOS Compass Heading
iOS Angle

Next 30 passes for location: Hong Kong

Rise time Rise Azimuth (degrees) Set time Set Azimuth (degrees) Duration Max altitude (degrees)

No matching passes for this satellites